Regional Weather Roundup
Issued by NWS

Home | Current Version | Previous Version | Graphics & Text | Print | Product List | Glossary On
Versions: 1 2 3 4 5 6 7 8 9 10 11 12 13 14 15 16 17 18 19 20 21 22 23 24 25 26 27 28 29 30 31 32 33 34 35 36 37 38 39 40 41 42 43 44 45 46 47 48 49 50
000
ASUS43 KIND 290309
RWRIN

WEATHER ROUNDUP FOR INDIANA
NATIONAL WEATHER SERVICE INDIANAPOLIS IN
1100 PM EDT THU AUG 28 2014

NOTE: "FAIR" INDICATES FEW OR NO CLOUDS BELOW 12,000 FEET WITH NO
SIGNIFICANT WEATHER AND/OR OBSTRUCTIONS TO VISIBILITY.

* - STATION DOES NOT REPORT WEATHER SUCH AS PRECIPITATION OR FOG.

+ - STATION NOT QUALITY CONTROLLED BY THE NATIONAL WEATHER SERVICE.
    USE DATA WITH CAUTION...ESPECIALLY DEWPOINT AND RELATIVE
    HUMIDITY OBSERVATIONS.

INZ001>003-010>013-019-020-290400-
NORTHWEST INDIANA

CITY           SKY/WX    TMP DP  RH WIND       PRES   REMARKS
GARY /AIRPORT/ CLOUDY    72  68  89 CALM      30.06S
KNOX *+        PTCLDY    68  63  85 SE5       30.06F
LA PORTE +     MOCLDY    68  65  89 SE3       30.08S
MICHIGAN CITY+ MOCLDY    68  64  88 CALM      30.06F
MONTICELLO +   MOCLDY    71  66  84 E5        30.05S
RENSSELAER +   CLOUDY    70  68  94 E6        30.06S
VALPARAISO     MOCLDY    69  65  86 E5        30.06F

$$

LMZ046-743>745-290400-
SOUTHERN LAKE MICHIGAN

STATION/POSITION TIME  TEMP WIND        PRES
                       AIR  DIR/SP/G
                 (UTC) (F)  (DEG/KT/KT) (MB)
MICHIGAN CITY    0300   71   90/  3/  5   N/A

$$

INZ004-005-014>016-021>024-290400-
NORTH CENTRAL INDIANA

CITY           SKY/WX    TMP DP  RH WIND       PRES   REMARKS
GOSHEN         CLEAR     68  63  84 E6        30.08F
LOGANSPORT +   PTCLDY    66  63  88 E5        30.08R
PERU/GRISSOM   CLEAR     69  68  97 E6        30.08R
ROCHESTER +    CLEAR     70  64  83 E5        30.08S
SOUTH BEND     PTCLDY    72  62  71 E7        30.08S
WARSAW +       CLEAR     66  63  88 E3        30.08F

$$

INZ006>009-017-018-025>027-290400-
NORTHEAST INDIANA

CITY           SKY/WX    TMP DP  RH WIND       PRES   REMARKS
ANGOLA *+      PTCLDY    66  59  77 SE6       30.12S
AUBURN +       CLEAR     68  57  68 E3        30.12R
FORT WAYNE     CLEAR     68  62  81 E7        30.10S
HUNTINGTON +   CLEAR     67  63  85 SE3       30.09S

$$

INZ028-029-035-036-043>045-051>053-290400-
WEST CENTRAL INDIANA

CITY           SKY/WX    TMP DP  RH WIND       PRES   REMARKS
GREENCASTLE +  PTCLDY    72  68  88 E3        30.06S
LAFAYETTE      MOCLDY    71  65  81 E8        30.05R
TERRE HAUTE    PTCLDY    73  69  87 CALM      30.04R

$$

INZ030>032-037>040-046>048-054>057-064-065-290400-
CENTRAL INDIANA

CITY           SKY/WX    TMP DP  RH WIND       PRES   REMARKS
CP ATTERBURY + PTCLDY    72  64  78 CALM      30.07S
FRANKFORT +    PTCLDY    70  66  87 E6        30.08S
INDIANAPOLIS   PTCLDY    75  65  70 E7        30.05S
-EAGLE CREEK   PTCLDY    75  64  68 E7        30.06S
KOKOMO *+      CLEAR     66  63  88 E6        30.08S
MARION +       CLEAR     69  61  75 E8        30.09F
MT COMFORT *+  CLEAR     68 N/A N/A E6        30.08S
SHELBYVILLE    PTCLDY    71  66  84 E6        30.07R
ZIONSVILLE +   PTCLDY    72  64  75 E5        30.08S

$$

INZ033-034-041-042-049-050-058-059-290400-
EAST CENTRAL INDIANA

CITY           SKY/WX    TMP DP  RH WIND       PRES   REMARKS
MUNCIE         CLEAR     67  63  87 E7        30.10R

$$

INZ060-061-067>069-081>083-085>088-290400-
SOUTHWEST INDIANA

CITY           SKY/WX    TMP DP  RH WIND       PRES   REMARKS
EVANSVILLE     CLOUDY    75  71  87 NE3       30.02F
WASHINGTON +   MOCLDY    76  73  91 CALM      30.02S

$$

INZ062-063-066-070>080-084-089>092-290400-
SOUTH CENTRAL AND SOUTHEAST INDIANA

CITY           SKY/WX    TMP DP  RH WIND       PRES   REMARKS
BLOOMINGTON    PTCLDY    71  68  90 CALM      30.06R

$$



USA.gov is the U.S. government's official web portal to all federal, state and local government web resources and services.